User: anonymous   Login
Location: Auckland
(36.8670°S, 174.7670°E)
Time: 04:50:33
(UTC+12:00)
Language:

Vanguard 2 - Orbit

View from above orbital plane
View from above orbital plane
View from above satellite
View from above satellite

Ground track
Ground track

The orbit data is extracted from the following two-line orbital elements,

1    11U 59001A   19197.91752801 -.00000005 +00000-0 -97938-5 0  9995
2    11 032.8653 238.8277 1467938 151.7201 217.1616 11.85613872235021
Epoch (UTC): 16 July 2019 22:01:14
Eccentricity: 0.1467938
inclination: 32.8653°
perigee height: 553 km
apogee height: 2938 km
right ascension of ascending node: 238.8277°
argument of perigee: 151.7201°
revolutions per day: 11.85613872
mean anomaly at epoch: 217.1616°
orbit number at epoch: 23502

The dashed part of the orbit path shows where the satellite is in the earth's shadow,  

DLR